IZ2WMD-13 Weather Reports


time (UTC)temp
C
wind
direction
speed
KPH
gust
KPH
rain 1hr
cm
rain 24hr
cm
rain mn
cm
humidity
%
barometer
mb
20260902170203 27 0.0 0.0 0.00 0.00 0.00 51 1015.8
20260902163202 28 0.0 0.0 0.00 0.00 0.00 47 1015.8
20260902160201 30 0.0 0.0 0.00 0.00 0.00 40 1015.7
20260902153159 31 0.0 0.0 0.00 0.00 0.00 37 1015.8
20260902150158 31 0.0 0.0 0.00 0.00 0.00 36 1015.9
20260902143156 32 0.0 0.0 0.00 0.00 0.00 38 1016.2
20260902140155 33 0.0 0.0 0.00 0.00 0.00 38 1016.4
20260902133154 32 0.0 0.0 0.00 0.00 0.00 39 1016.8
20260902130151 32 0.0 0.0 0.00 0.00 0.00 39 1017.1
20260902123150 32 0.0 0.0 0.00 0.00 0.00 40 1017.6
20260902120149 31 0.0 0.0 0.00 0.00 0.00 43 1017.9
20260902113148 32 0.0 0.0 0.00 0.00 0.00 40 1018.1
20260902110146 31 0.0 0.0 0.00 0.00 0.00 40 1018.3
20260902103145 30 0.0 0.0 0.00 0.00 0.00 42 1018.9
20260902100144 30 0.0 0.0 0.00 0.00 0.00 38 1019.2
20260902093142 29 0.0 0.0 0.00 0.00 0.00 40 1019.4
20260902090141 28 0.0 0.0 0.00 0.00 0.00 42 1019.4
20260902083140 26 0.0 0.0 0.00 0.00 0.00 50 1019.7
20260902080139 25 0.0 0.0 0.00 0.00 0.00 55 1019.8
20260902073137 25 0.0 0.0 0.00 0.00 0.00 55 1019.5
20260902070136 23 0.0 0.0 0.00 0.00 0.00 61 1019.4
20260902063135 22 0.0 0.0 0.00 0.00 0.00 69 1019.6
20260902060134 21 0.0 0.0 0.00 0.00 0.00 65 1019.7
20260902053132 19 0.0 0.0 0.00 0.00 0.00 85 1019.7
20260902050131 18 0.0 0.0 0.00 0.00 0.00 86 1019.5
20260902043130 18 0.0 0.0 0.00 0.00 0.00 86 1019.3
20260902040128 18 0.0 0.0 0.00 0.00 0.00 84 1019.0
20260902033127 19 0.0 0.0 0.00 0.00 0.00 85 1019.1
20260902030126 19 0.0 0.0 0.00 0.00 0.00 81 1019.0
20260902023125 19 0.0 0.0 0.00 0.00 0.00 84 1019.0
20260902020123 20 0.0 0.0 0.00 0.00 0.00 83 1018.8
20260902013122 20 0.0 0.0 0.00 0.00 0.00 80 1018.9
20260902010120 20 0.0 0.0 0.00 0.00 0.00 81 1018.9
20260902003119 21 0.0 0.0 0.00 0.00 0.00 76 1018.8
20260902000118 21 0.0 0.0 0.00 0.00 0.00 69 1018.8
20260901233117 21 0.0 0.0 0.00 0.00 0.00 67 1018.8
20260901230115 21 0.0 0.0 0.00 0.00 0.00 72 1018.9
20260901223114 21 0.0 0.0 0.00 0.00 0.00 72 1018.7
20260901220113 21 0.0 0.0 0.00 0.00 0.00 70 1018.7
20260901213111 22 0.0 0.0 0.00 0.00 0.00 72 1018.7
20260901210110 22 0.0 0.0 0.00 0.00 0.00 72 1018.6
20260901203109 22 0.0 0.0 0.00 0.00 0.00 63 1018.5
20260901200107 22 0.0 0.0 0.00 0.00 0.00 76 1018.3
20260901193106 22 0.0 0.0 0.00 0.00 0.00 76 1018.0
20260901190105 23 0.0 0.0 0.00 0.00 0.00 74 1017.7
20260901183103 23 0.0 0.0 0.00 0.00 0.00 71 1017.3
20260901173101 26 0.0 0.0 0.00 0.00 0.00 60 1016.6